Date String (YYYY-MM-DD hh:mm:ss) UTC,Instrument flags,Ambient pressure (hPa),Sample flow (lpm),Bypass flow (lpm),Sample temperature (°C),Ambient temperature (°C),ASC tube jacket temperature (°C),LED temperature (°C),Box temperature (°C),Sample RH (%),Span deviation,Mass concentration (μg/m³),Mass concentration (μg/m³),Mass concentration (μg/m³)
DateTimeUTC,F1_M11,P_M11,Q1_M11,Q2_M11,T1_M11,T2_M11,T3_M11,T4_M11,T5_M11,U1_M11,ZSPAN_M11,X0_M11,X2_M11,X1_M11
2023-04-26 19:00:00,,0832.3,5.00,0.00,23.6,22.3,00.0,32.0,25.1,25.2,0000.0,0005.74,0004.05,0003.90
2023-04-26 19:01:00,,0832.3,5.00,0.00,23.6,22.3,00.0,32.0,25.1,25.3,0000.0,0005.65,0004.02,0003.90
2023-04-26 19:02:00,,0832.3,5.00,0.00,23.6,22.3,00.0,32.0,25.1,25.4,0000.0,0005.50,0004.01,0003.89
2023-04-26 19:03:00,,0832.3,5.00,0.00,23.6,22.3,00.0,32.0,25.1,25.3,0000.0,0005.24,0004.00,0003.89
2023-04-26 19:04:00,,0832.2,5.00,0.00,23.6,22.3,00.0,32.0,25.1,25.4,0000.0,0005.19,0003.99,0003.90
2023-04-26 19:05:00,,0832.2,5.00,0.00,23.6,22.3,00.0,32.0,25.1,26.1,0000.0,0005.37,0004.05,0003.93
2023-04-26 19:06:00,,0832.2,5.00,0.00,23.6,22.2,00.0,32.0,25.1,25.9,0000.0,0005.51,0004.07,0003.95
2023-04-26 19:07:00,,0832.2,5.00,0.00,23.6,22.2,00.0,32.0,25.1,25.9,0000.0,0005.64,0004.10,0003.97
2023-04-26 19:08:00,,0832.2,5.00,0.00,23.6,22.2,00.0,32.0,25.1,25.1,0000.0,0005.67,0004.11,0003.97
2023-04-26 19:09:00,,0832.2,5.00,0.00,23.6,22.2,00.0,32.0,25.1,25.0,0000.0,0005.68,0004.11,0003.97
2023-04-26 19:10:00,,0832.2,5.00,0.00,23.6,22.3,00.0,32.0,25.1,24.8,0000.0,0005.62,0004.09,0003.96
2023-04-26 19:11:00,,0832.2,5.00,0.00,23.6,22.3,00.0,32.0,25.1,24.9,0000.0,0005.59,0004.08,0003.95
2023-04-26 19:12:00,,0832.2,5.00,0.00,23.6,22.3,00.0,32.0,25.1,24.3,0000.0,0005.57,0004.08,0003.96
2023-04-26 19:13:00,,0832.2,5.01,0.00,23.6,22.3,00.0,32.0,25.2,25.3,0000.0,0005.63,0004.09,0003.96
2023-04-26 19:14:00,,0832.2,5.00,0.00,23.6,22.3,00.0,32.0,25.2,25.3,0000.0,0005.59,0004.09,0003.96
2023-04-26 19:15:00,,0832.2,5.00,0.00,23.6,22.4,00.0,32.0,25.2,23.9,0000.0,0005.58,0004.07,0003.94
2023-04-26 19:16:00,,0832.2,5.00,0.00,23.6,22.4,00.0,32.0,25.2,24.3,0000.0,0005.61,0004.06,0003.91
2023-04-26 19:17:00,,0832.2,4.99,0.00,23.6,22.4,00.0,32.0,25.2,24.6,0000.0,0005.55,0004.04,0003.90
2023-04-26 19:18:00,,0832.2,4.99,0.00,23.6,22.4,00.0,32.0,25.2,25.3,0000.0,0005.38,0004.01,0003.89
2023-04-26 19:19:00,,0832.2,5.01,0.00,23.6,22.4,00.0,32.0,25.2,26.4,0000.0,0005.39,0004.00,0003.88
2023-04-26 19:20:00,,0832.2,5.01,0.00,23.6,22.5,00.0,32.0,25.2,26.1,0000.0,0005.35,0003.99,0003.87
2023-04-26 19:21:00,,0832.2,5.00,0.00,23.7,22.5,00.0,32.0,25.2,25.8,0000.0,0005.47,0004.01,0003.87
2023-04-26 19:22:00,,0832.1,4.99,0.00,23.7,22.5,00.0,32.0,25.2,25.4,0000.0,0005.46,0004.01,0003.88
2023-04-26 19:23:00,,0832.1,5.00,0.00,23.7,22.5,00.0,32.0,25.2,24.9,0000.0,0005.51,0004.02,0003.88
2023-04-26 19:24:00,,0832.1,5.01,0.00,23.7,22.5,00.0,32.0,25.2,25.5,0000.0,0005.44,0004.00,0003.87
2023-04-26 19:25:00,,0832.1,5.00,0.00,23.7,22.5,00.0,32.0,25.3,25.5,0000.0,0005.50,0003.99,0003.86
2023-04-26 19:26:00,,0832.1,4.98,0.00,23.7,22.5,00.0,32.0,25.3,25.4,0000.0,0005.55,0004.00,0003.86
2023-04-26 19:27:00,,0832.1,5.00,0.00,23.7,22.4,00.0,32.0,25.2,25.3,0000.0,0005.43,0003.99,0003.87
2023-04-26 19:28:00,,0832.1,5.00,0.00,23.7,22.4,00.0,32.0,25.3,25.4,0000.0,0005.36,0003.97,0003.86
2023-04-26 19:29:00,,0832.1,5.00,0.00,23.7,22.4,00.0,32.1,25.3,25.7,0000.0,0005.41,0003.98,0003.86
2023-04-26 19:30:00,,0832.1,5.00,0.00,23.7,22.4,00.0,32.1,25.3,25.6,0000.0,0005.48,0003.99,0003.87
2023-04-26 19:31:00,,0832.1,5.00,0.00,23.7,22.5,00.0,32.1,25.3,24.5,0000.0,0005.54,0004.00,0003.88
2023-04-26 19:32:00,,0832.1,5.01,0.00,23.7,22.5,00.0,32.1,25.3,24.5,0000.0,0005.44,0003.99,0003.89
2023-04-26 19:33:00,,0832.1,5.00,0.00,23.7,22.5,00.0,32.1,25.3,24.4,0000.0,0005.44,0003.99,0003.88
2023-04-26 19:34:00,,0832.1,5.00,0.00,23.7,22.5,00.0,32.1,25.3,24.0,0000.0,0005.36,0003.96,0003.86
2023-04-26 19:35:00,,0832.0,5.00,0.00,23.7,22.5,00.0,32.1,25.3,24.4,0000.0,0005.30,0003.95,0003.85
2023-04-26 19:36:00,,0832.0,5.00,0.00,23.7,22.5,00.0,32.1,25.3,24.5,0000.0,0005.17,0003.94,0003.85
2023-04-26 19:37:00,,0832.1,4.98,0.00,23.7,22.5,00.0,32.1,25.3,24.6,0000.0,0005.10,0003.92,0003.84
2023-04-26 19:38:00,,0832.0,5.01,0.00,23.7,22.6,00.0,32.1,25.4,24.5,0000.0,0005.07,0003.91,0003.84
2023-04-26 19:39:00,,0832.0,5.01,0.00,23.8,22.6,00.0,32.1,25.4,24.6,0000.0,0005.20,0003.92,0003.84
2023-04-26 19:40:00,,0832.0,4.99,0.00,23.8,22.6,00.0,32.1,25.4,25.0,0000.0,0005.12,0003.89,0003.82
2023-04-26 19:41:00,,0832.0,4.99,0.00,23.8,22.6,00.0,32.1,25.4,24.4,0000.0,0005.06,0003.88,0003.81
2023-04-26 19:42:00,,0832.0,5.00,0.00,23.8,22.6,00.0,32.1,25.4,24.4,0000.0,0005.07,0003.87,0003.79
2023-04-26 19:43:00,,0832.0,5.00,0.00,23.8,22.6,00.0,32.1,25.4,24.2,0000.0,0005.18,0003.89,0003.78
2023-04-26 19:44:00,,0832.1,5.00,0.00,23.8,22.7,00.0,32.1,25.5,24.3,0000.0,0005.32,0003.90,0003.78
2023-04-26 19:45:00,,0832.0,5.00,0.00,23.8,22.7,00.0,32.2,25.5,24.4,0000.0,0005.36,0003.90,0003.78
2023-04-26 19:46:00,,0832.0,5.00,0.00,23.8,22.7,00.0,32.2,25.5,23.9,0000.0,0005.41,0003.89,0003.77
2023-04-26 19:47:00,,0832.0,5.00,0.00,23.8,22.7,00.0,32.2,25.5,23.9,0000.0,0005.48,0003.90,0003.76
2023-04-26 19:48:00,,0832.0,5.00,0.00,23.8,22.7,00.0,32.2,25.4,25.2,0000.0,0005.52,0003.91,0003.76
2023-04-26 19:49:00,,0831.9,5.00,0.00,23.8,22.6,00.0,32.2,25.4,25.6,0000.0,0005.58,0003.93,0003.77
2023-04-26 19:50:00,,0831.9,5.00,0.00,23.8,22.6,00.0,32.2,25.5,25.1,0000.0,0005.96,0003.92,0003.76
2023-04-26 19:51:00,,0832.0,5.00,0.00,23.9,22.6,00.0,32.2,25.5,25.7,0000.0,0006.50,0003.92,0003.77
2023-04-26 19:52:00,,0832.0,5.00,0.00,23.9,22.6,00.0,32.2,25.5,25.9,0000.0,0006.49,0003.91,0003.76
2023-04-26 19:53:00,,0832.0,4.99,0.00,23.9,22.6,00.0,32.2,25.4,25.0,0000.0,0006.56,0003.93,0003.78
2023-04-26 19:54:00,,0831.9,5.00,0.00,23.9,22.6,00.0,32.2,25.4,25.2,0000.0,0006.50,0003.92,0003.79
2023-04-26 19:55:00,,0831.9,5.01,0.00,23.9,22.5,00.0,32.2,25.4,24.5,0000.0,0006.45,0003.92,0003.79
2023-04-26 19:56:00,,0831.9,5.00,0.00,23.9,22.6,00.0,32.2,25.4,25.2,0000.0,0006.40,0003.91,0003.79
2023-04-26 19:57:00,,0831.9,4.99,0.00,23.9,22.6,00.0,32.2,25.5,24.4,0000.0,0006.36,0003.90,0003.78
2023-04-26 19:58:00,,0831.8,5.01,0.00,23.9,22.6,00.0,32.2,25.5,23.3,0000.0,0006.29,0003.89,0003.77
2023-04-26 19:59:00,,0831.8,5.00,0.00,23.9,22.6,00.0,32.2,25.5,24.2,0000.0,0006.22,0003.86,0003.75
